This is the latest recevied weather packets stored in our database for station/object IZ5MMH-4. If no packets are shown the sender has not sent any weather packets the latest 10 day(s).
| Time | Temp. | Humidity | Pressure | Rain* | Wind** | Luminosity | Snow |
|---|---|---|---|---|---|---|---|
| 1787892863 | 30° C | 69% | 1017.1 hPa | - | - | - | - |
| 1787892263 | 30.56° C | 67% | 1017.1 hPa | - | - | - | - |
| 1787891664 | 30.56° C | 66% | 1016.8 hPa | - | - | - | - |
| 1787891063 | 30.56° C | 64% | 1016.7 hPa | - | - | - | - |
| 1787890463 | 30.56° C | 64% | 1016.4 hPa | - | - | - | - |
| 1787889863 | 30.56° C | 66% | 1016.4 hPa | - | - | - | - |
| 1787889263 | 30.56° C | 67% | 1016.4 hPa | - | - | - | - |
| 1787888663 | 30.56° C | 69% | 1016.6 hPa | - | - | - | - |
| 1787888064 | 30.56° C | 71% | 1016.5 hPa | - | - | - | - |
| 1787887463 | 30.56° C | 71% | 1016.5 hPa | - | - | - | - |
| 1787886863 | 30.56° C | 71% | 1016.3 hPa | - | - | - | - |
| 1787886263 | 30.56° C | 70% | 1016.3 hPa | - | - | - | - |
| 1787885663 | 30.56° C | 72% | 1016.4 hPa | - | - | - | - |
| 1787885064 | 30° C | 74% | 1016.5 hPa | - | - | - | - |
| 1787884463 | 30° C | 80% | 1016.8 hPa | - | - | - | - |
| 1787883863 | 30° C | 83% | 1017.3 hPa | - | - | - | - |
| 1787883263 | 30° C | 93% | 1017.4 hPa | - | - | - | - |
| 1787882663 | 30° C | 97% | 1017.4 hPa | - | - | - | - |
| 1787882063 | 30° C | 98% | 1018.1 hPa | - | - | - | - |
| 1787881463 | 30° C | 97% | 1019.7 hPa | - | - | - | - |
| 1787880863 | 30° C | 96% | 1020.1 hPa | - | - | - | - |
| 1787880263 | 30° C | 97% | 1018.2 hPa | - | - | - | - |
| 1787879663 | 30° C | 96% | 1018 hPa | - | - | - | - |
| 1787879063 | 30° C | 97% | 1018.5 hPa | - | - | - | - |
| 1787878463 | 30° C | 98% | 1017.7 hPa | - | - | - | - |
* Rain since midnight (hover to see other rain measurements)
** Current wind speed in m/s (hover to see current wind gust speed)